Wind_Speed
24 28 28 26 25 22 19 17 15 13 12 10 9 9 8 5 7 7 7 5 6 8 8 7 8 8 8 8 7 7 6 7 8 9 11 10 8 8 7 7 5 6 6
24 26 26 26 25 23 20 17 14 13 11 8 10 12 11 10 7 8 9 9 9 11 9 7 7 9 10 9 8 9 9 7 8 9 11 11 10 9 9 8 7 6 6
25 26 25 26 25 22 18 16 12 12 12 10 10 10 10 11 11 8 11 12 12 10 10 11 12 11 10 10 10 10 10 8 8 8 10 10 10 10 9 10 10 9 7
29 26 24 23 21 19 17 16 15 14 14 14 13 12 13 13 10 11 12 11 13 12 13 15 16 16 12 12 12 12 10 8 7 8 9 8 10 10 10 10 9 11 10
30 29 26 22 20 19 18 16 16 17 18 17 17 16 15 17 14 14 16 15 14 17 17 17 18 16 12 11 11 12 11 8 7 8 9 10 10 10 10 9 10 9 9
29 29 25 22 20 17 15 15 16 17 16 16 15 18 16 17 17 15 16 15 17 17 19 21 17 12 9 7 11 13 10 10 9 8 10 12 11 10 11 10 9 10 12
28 27 25 23 21 20 17 14 14 15 15 16 14 15 18 18 18 18 21 21 21 23 21 17 13 9 7 8 9 14 13 12 11 10 10 11 12 10 9 10 10 10 12
28 26 26 25 24 23 21 19 16 14 13 14 16 17 17 22 25 23 26 26 24 24 21 14 12 10 9 8 9 13 15 15 14 12 11 10 11 10 8 9 10 9 10
22 23 21 21 21 22 22 22 20 18 18 17 19 18 8 12 15 23 28 25 25 22 15 12 11 11 12 12 11 13 15 16 14 14 13 11 11 11 10 10 10 10 11
20 18 16 16 15 15 16 14 16 16 20 22 21 25 25 22 8 7 22 28 21 15 12 10 11 14 14 15 14 14 15 16 16 15 15 15 13 13 12 11 9 6 9
13 13 15 18 19 19 16 19 21 23 28 30 26 28 25 28 31 25 11 17 17 12 11 15 16 16 15 15 15 17 17 17 16 16 16 19 16 12 13 11 12 12 10
21 21 23 21 20 19 22 22 22 24 24 24 25 26 26 25 29 30 23 20 14 11 13 16 19 19 19 17 16 16 17 17 17 17 16 18 17 15 13 13 13 12 14
27 23 20 28 27 23 23 26 27 26 24 23 24 23 25 26 28 34 32 26 21 21 18 16 19 19 21 19 15 14 15 17 17 17 17 17 16 16 16 17 14 14 17
22 17 16 16 21 21 20 20 25 22 22 21 22 19 18 16 19 26 23 18 28 20 17 17 19 21 23 20 17 15 15 15 16 17 18 18 17 17 17 17 16 15 17
21 21 24 25 23 24 23 25 25 22 21 23 23 22 20 19 20 23 23 22 22 19 20 21 21 22 22 21 20 17 15 15 15 17 19 19 17 18 17 15 16 17 17
18 19 20 22 23 24 26 27 28 29 32 28 25 25 26 23 21 21 20 20 22 20 17 15 16 18 20 21 20 18 17 18 19 17 19 19 17 18 18 16 15 18 19
13 15 17 18 20 22 22 22 22 21 23 23 20 26 27 22 20 18 18 18 18 19 20 21 19 17 17 19 21 21 24 25 20 18 17 18 18 19 15 14 15 18 19
12 14 16 18 20 22 23 21 20 19 23 22 21 26 22 20 20 20 19 19 19 19 18 19 20 22 23 22 22 23 24 19 16 14 17 18 17 17 16 16 15 18 18
14 15 16 16 17 18 19 18 19 18 21 26 19 26 19 22 22 21 21 20 20 19 20 22 21 22 22 22 23 22 19 18 18 19 19 17 16 16 16 16 14 19 17
15 16 17 17 16 16 17 17 19 20 21 24 22 22 22 22 22 23 22 21 20 21 21 22 22 21 21 23 20 21 18 18 19 19 19 18 18 17 16 16 16 20 15
16 17 18 18 18 17 15 15 18 21 24 29 24 23 24 24 24 24 22 21 21 21 22 22 22 23 23 22 19 18 16 19 19 19 19 20 18 17 16 16 20 16 14
15 16 17 18 19 19 17 16 16 18 20 23 23 24 23 23 24 24 23 21 22 22 22 23 25 25 24 22 20 17 17 18 19 19 19 19 18 17 16 21 18 14 12
15 14 15 16 18 19 18 19 18 19 20 20 21 21 23 24 24 23 23 22 23 24 25 23 24 23 18 17 20 20 19 18 18 17 13 14 16 15 17 14 14 13 12
19 17 16 16 17 18 19 20 21 21 22 23 23 23 23 24 25 24 26 24 25 25 24 23 23 20 18 19 19 19 16 14 17 15 14 13 15 17 14 12 12 11 9
22 23 21 19 18 17 17 21 21 22 24 24 24 25 26 26 25 26 28 28 26 25 25 25 22 19 20 19 18 19 18 19 17 16 16 16 18 15 14 11 10 10 9
22 21 21 20 20 21 17 16 19 24 25 24 26 27 28 29 27 27 29 27 28 25 24 23 22 18 19 20 21 19 19 19 18 16 19 19 16 12 12 14 12 11 11
Wind_Direction
200 191 189 192 193 193 194 196 195 198 201 215 213 193 204 200 208 231 262 272 272 307 327 304 314 293 291 282 287 298 301 324 335 338 341 329 311 304 312 303 312 322 332
205 195 193 193 193 195 196 200 198 203 204 215 207 208 208 219 217 235 250 254 258 290 309 312 304 300 296 290 276 277 289 302 316 328 336 327 322 314 305 306 302 299 309
206 199 195 192 193 193 200 203 201 209 214 214 216 220 215 216 230 222 247 257 266 274 288 294 301 303 293 288 280 276 275 292 302 325 330 331 323 317 301 289 285 289 295
201 204 197 194 194 196 198 205 203 198 206 218 219 230 219 232 244 239 241 252 257 257 278 288 293 293 283 282 277 277 268 278 289 318 332 333 332 326 314 297 290 277 273
206 200 196 196 197 198 199 203 206 211 217 220 226 227 225 224 232 245 243 247 253 260 269 279 288 286 279 275 261 261 267 264 279 312 321 322 318 323 321 310 284 275 276
189 190 193 188 186 191 198 207 214 219 220 228 230 228 229 231 237 235 232 244 248 256 269 278 276 273 277 259 244 249 259 259 270 286 311 319 312 309 306 305 290 269 258
184 183 187 187 192 197 211 220 221 218 222 223 226 232 231 247 241 240 248 246 252 258 267 265 268 264 271 272 240 247 254 257 264 279 307 321 314 309 312 308 301 288 269
188 192 195 196 200 201 208 214 220 218 222 221 230 239 254 249 243 242 246 245 247 257 262 262 263 268 273 274 252 249 254 259 264 271 297 309 314 311 319 332 323 318 291
197 204 206 202 206 215 222 225 219 220 226 224 226 227 220 238 261 252 237 236 246 254 250 256 257 261 269 269 262 257 255 255 262 276 291 297 309 303 314 314 311 316 292
191 190 207 219 226 232 235 241 245 254 258 249 248 236 233 239 257 297 217 229 225 228 249 257 267 269 266 270 264 256 252 253 263 269 277 280 286 298 303 304 302 307 334
225 235 244 242 245 239 242 244 243 249 251 259 258 245 242 247 251 253 230 201 202 213 237 266 264 267 270 274 275 266 256 252 256 264 270 281 281 283 292 297 300 288 293
270 260 246 238 240 246 251 248 250 242 240 239 233 235 239 239 235 233 216 211 219 251 272 265 260 270 282 283 283 272 261 256 259 262 266 266 277 286 279 288 287 293 292
243 262 223 238 249 253 251 252 254 251 242 242 241 244 245 248 245 239 211 215 253 264 264 253 249 268 275 280 278 278 269 266 263 263 260 264 288 282 280 281 277 287 294
244 256 251 254 247 244 241 247 245 245 253 254 255 246 242 233 237 236 213 215 242 254 231 244 247 252 262 265 269 275 279 272 265 261 255 266 269 277 282 280 283 288 290
261 261 248 250 255 258 258 258 253 255 250 254 257 254 245 243 243 244 230 227 228 233 236 237 246 253 255 256 262 265 265 266 266 264 264 262 265 275 271 273 279 282 291
245 252 247 253 251 257 261 263 265 262 255 258 258 252 239 244 242 234 231 232 240 231 235 237 244 247 253 253 261 266 270 271 270 264 264 262 274 271 268 273 278 296 301
272 270 272 271 268 267 267 265 265 258 258 252 254 244 242 226 229 235 235 233 229 234 241 245 246 245 245 250 261 268 276 279 269 268 270 260 261 262 260 266 282 300 295
276 275 275 279 280 276 271 264 265 259 259 250 253 246 231 227 236 236 232 233 236 242 249 255 255 258 261 266 263 265 277 270 268 271 261 263 264 262 262 268 288 302 292
286 280 276 275 277 281 275 268 265 261 259 254 252 241 236 240 237 231 234 237 241 247 249 250 256 256 255 258 263 275 264 262 267 267 264 264 259 261 261 269 288 298 279
288 282 280 274 270 272 274 268 264 264 255 248 246 238 240 236 234 236 238 239 242 245 246 249 255 252 253 255 260 260 264 262 264 266 265 265 261 262 265 272 288 290 264
298 294 286 278 273 271 267 261 260 264 254 252 234 233 235 238 237 237 241 243 243 245 247 248 252 249 252 256 260 254 261 262 260 258 255 254 257 260 267 279 284 266 260
306 297 288 283 279 274 269 266 262 259 259 260 255 256 243 240 240 242 243 245 250 251 254 259 260 256 259 259 246 245 250 254 256 255 249 249 251 254 263 274 267 256 251
314 305 296 287 279 275 270 266 261 260 258 256 255 250 244 247 246 245 250 251 252 252 253 255 260 262 258 252 249 243 243 254 258 257 257 245 246 256 269 255 250 255 259
310 310 306 298 285 272 266 262 260 259 258 255 252 251 251 248 244 247 246 250 251 249 253 253 255 255 245 240 241 249 249 249 246 241 242 245 256 266 257 249 248 252 248
312 307 302 301 302 293 278 265 257 259 257 253 251 250 252 252 253 253 250 249 248 245 247 247 247 243 239 242 241 238 235 231 231 240 241 244 254 252 246 239 241 240 227
311 312 311 309 303 299 303 290 271 260 263 258 252 248 250 250 248 250 254 253 247 241 241 241 235 232 230 236 238 239 236 236 233 238 241 245 242 235 244 235 221 219 220
Height
1518 1520 1523 1527 1532 1535 1539 1541 1543 1545 1547 1548 1549 1551 1553 1554 1556 1557 1558 1558 1558 1559 1558 1558 1557 1557 1556 1555 1554 1554 1553 1552 1552 1550 1550 1550 1549 1547 1546 1545 1544 1545 1544
1515 1518 1521 1524 1528 1532 1536 1539 1541 1543 1544 1546 1548 1550 1551 1553 1554 1556 1557 1557 1557 1557 1556 1556 1556 1555 1554 1554 1553 1552 1552 1550 1550 1549 1549 1549 1549 1548 1546 1546 1545 1544 1543
1513 1516 1519 1521 1526 1529 1532 1535 1538 1540 1542 1544 1546 1548 1549 1552 1553 1554 1555 1555 1555 1554 1554 1554 1554 1553 1553 1552 1551 1551 1550 1550 1550 1548 1546 1547 1547 1546 1544 1544 1543 1543 1544
1510 1513 1517 1520 1523 1527 1530 1532 1535 1538 1540 1541 1543 1545 1548 1549 1551 1551 1552 1553 1553 1552 1552 1551 1550 1550 1549 1549 1550 1549 1549 1549 1548 1547 1547 1545 1545 1544 1542 1542 1542 1541 1540
1507 1510 1514 1518 1521 1524 1527 1529 1532 1534 1537 1538 1541 1543 1544 1546 1548 1549 1550 1550 1550 1549 1549 1549 1548 1547 1546 1546 1547 1547 1547 1547 1547 1546 1545 1543 1542 1541 1540 1538 1539 1539 1538
1502 1506 1511 1515 1518 1521 1523 1526 1528 1531 1532 1536 1537 1540 1542 1542 1544 1546 1547 1547 1547 1546 1546 1546 1545 1544 1544 1544 1544 1544 1544 1545 1545 1543 1542 1541 1540 1538 1537 1535 1534 1535 1536
1498 1503 1508 1512 1514 1516 1519 1523 1525 1526 1528 1532 1534 1536 1538 1540 1542 1543 1544 1543 1543 1544 1543 1543 1542 1541 1540 1540 1542 1542 1542 1541 1542 1541 1539 1539 1539 1537 1535 1533 1532 1531 1532
1496 1500 1503 1506 1510 1512 1515 1518 1520 1521 1524 1528 1530 1532 1535 1537 1537 1538 1539 1538 1539 1540 1539 1539 1538 1538 1538 1538 1538 1539 1540 1540 1539 1538 1537 1536 1535 1535 1534 1532 1530 1528 1526
1493 1497 1500 1503 1506 1508 1510 1513 1514 1517 1520 1523 1526 1528 1529 1531 1532 1532 1533 1534 1535 1536 1536 1535 1535 1534 1534 1534 1535 1536 1536 1537 1537 1535 1534 1534 1533 1532 1532 1529 1527 1526 1525
1488 1491 1497 1501 1502 1504 1506 1507 1510 1511 1515 1518 1520 1521 1522 1524 1526 1529 1527 1528 1530 1531 1532 1531 1532 1531 1531 1531 1531 1532 1533 1533 1534 1532 1530 1530 1530 1529 1529 1527 1525 1524 1523
1486 1490 1493 1495 1498 1498 1499 1504 1505 1504 1505 1507 1511 1513 1514 1517 1519 1524 1524 1523 1523 1525 1527 1529 1529 1528 1528 1527 1527 1528 1528 1527 1528 1529 1528 1527 1526 1525 1525 1525 1524 1522 1520
1482 1486 1489 1491 1491 1493 1496 1497 1499 1500 1501 1500 1501 1503 1504 1507 1509 1512 1514 1521 1521 1520 1521 1523 1524 1524 1523 1524 1525 1524 1524 1524 1524 1525 1524 1524 1522 1522 1521 1521 1520 1520 1520
1480 1481 1481 1484 1486 1489 1491 1493 1494 1495 1495 1495 1496 1496 1497 1498 1498 1502 1499 1512 1514 1516 1516 1518 1520 1520 1519 1521 1521 1521 1521 1522 1521 1521 1521 1519 1519 1518 1518 1518 1516 1513 1513
1476 1478 1478 1479 1483 1486 1486 1489 1490 1489 1489 1489 1490 1489 1491 1490 1493 1495 1494 1498 1508 1510 1511 1514 1516 1516 1516 1517 1518 1517 1517 1518 1517 1517 1516 1516 1515 1515 1515 1514 1513 1511 1508
1471 1472 1474 1476 1478 1479 1481 1483 1484 1483 1484 1485 1485 1486 1487 1489 1490 1492 1493 1493 1499 1503 1504 1506 1509 1511 1511 1512 1514 1514 1513 1513 1512 1513 1511 1510 1510 1511 1510 1509 1509 1508 1503
1466 1468 1469 1471 1473 1474 1476 1476 1475 1474 1478 1479 1479 1480 1480 1483 1485 1486 1488 1491 1494 1496 1499 1501 1502 1504 1507 1508 1509 1509 1510 1510 1509 1509 1508 1506 1508 1508 1505 1505 1504 1504 1502
1463 1464 1465 1466 1467 1467 1469 1468 1469 1470 1471 1471 1473 1474 1476 1477 1480 1481 1485 1488 1490 1493 1493 1497 1498 1499 1501 1503 1503 1504 1503 1504 1503 1502 1501 1502 1500 1501 1500 1502 1500 1498 1496
1460 1459 1460 1461 1460 1461 1463 1463 1464 1463 1464 1464 1467 1470 1471 1473 1475 1478 1481 1483 1486 1489 1489 1492 1493 1495 1496 1497 1497 1498 1497 1498 1498 1498 1496 1497 1496 1498 1495 1496 1496 1495 1495
1457 1458 1457 1457 1458 1458 1458 1457 1458 1457 1459 1461 1461 1462 1465 1468 1470 1472 1475 1476 1480 1482 1482 1483 1485 1487 1489 1489 1491 1491 1491 1493 1492 1493 1494 1492 1491 1490 1491 1491 1489 1489 1491
1455 1455 1454 1455 1454 1454 1454 1453 1453 1453 1454 1456 1456 1457 1461 1462 1464 1469 1469 1471 1472 1473 1476 1477 1478 1481 1483 1483 1484 1486 1486 1487 1488 1488 1489 1489 1488 1486 1486 1488 1485 1486 1486
1451 1450 1451 1450 1449 1449 1448 1447 1447 1449 1450 1453 1450 1451 1454 1458 1460 1461 1463 1465 1465 1468 1469 1471 1471 1474 1475 1475 1477 1480 1481 1484 1483 1481 1481 1483 1483 1483 1483 1484 1482 1481 1481
1445 1446 1446 1445 1445 1443 1442 1442 1441 1442 1444 1446 1446 1448 1450 1448 1453 1456 1456 1458 1461 1459 1461 1464 1467 1466 1467 1470 1470 1471 1474 1477 1478 1479 1475 1476 1476 1479 1476 1479 1481 1479 1474
1445 1442 1441 1439 1438 1438 1437 1439 1435 1436 1439 1440 1441 1444 1443 1445 1445 1449 1451 1451 1452 1453 1454 1455 1459 1461 1463 1467 1470 1469 1469 1472 1473 1475 1475 1473 1476 1477 1475 1472 1477 1476 1476
1443 1439 1436 1435 1432 1431 1430 1431 1432 1430 1431 1434 1434 1437 1439 1440 1441 1441 1445 1444 1443 1445 1448 1448 1450 1456 1456 1461 1462 1467 1466 1466 1470 1470 1471 1472 1474 1476 1472 1473 1472 1473 1472
1438 1439 1435 1430 1426 1427 1425 1424 1423 1425 1425 1425 1426 1428 1430 1432 1435 1436 1438 1439 1437 1440 1439 1440 1442 1447 1453 1454 1456 1458 1459 1462 1461 1464 1466 1466 1467 1471 1471 1469 1469 1470 1471
1436 1433 1429 1426 1425 1421 1420 1417 1417 1417 1418 1418 1418 1420 1421 1423 1425 1427 1430 1432 1431 1433 1433 1434 1438 1438 1443 1448 1449 1449 1454 1456 1455 1460 1462 1463 1463 1467 1470 1465 1462 1467 1471